Location: Noverd
(38.0910°N, 121.6877°W)
Time: 14:13:55
(UTC+00:00)

Envisat - Pass Details

Date: 21 April 2026
Orbit: 761 x 762 km, 98.4° (Epoch: 15 May)

Event Time Altitude Azimuth Distance (km) Brightness Sun altitude
Rises 10:52:49 0° 10° (N) 3,230 7.0 -26.5°
Reaches altitude 10° 10:55:07 10° 9° (N) 2,300 6.1 -26.2°
Maximum altitude 11:00:10 74° 285° (WNW) 793 2.9 -25.4°
Enters shadow 11:00:14 74° 278° (W) 793 2.8 -25.4°
